Powrót do katalogu

FENGYUN 1C DEB

AktywnySSO
NORAD 29932·DEBRIS·🇨🇳 China

Wystrzelony May 10, 1999 z Taiyuan Satellite Launch Center

Loading…

Następne Przeloty (najbliższe 24 godziny)

TLE

ŚwieżeSource: Space-Track

Epoka: Sep 14, 2026, 12:29 UTC

1 29932U 99025JE  26257.52032325  .00000337  00000-0  18748-3 0  9998
2 29932  98.6313 265.1134 0037385 359.4064 153.6107 14.17061137 14342

Śledź FENGYUN 1C DEB w czasie rzeczywistym z AllMySat

Download on the App Store